CW3660 Weather Reports


time (UTC)temp
C
wind
direction
speed
KPH
gust
KPH
rain 1hr
cm
rain 24hr
cm
rain mn
cm
humidity
%
barometer
mb
20260507080016 10 315 1.6 11.3 0.00 0.36 0.03 88 1006.7
20260507075016 10 315 3.2 9.7 0.00 0.36 0.03 88 1007.1
20260507074016 11 315 1.6 8.0 0.00 0.36 0.03 89 1006.8
20260507073036 11 338 1.6 4.8 0.00 0.36 0.03 89 1006.9
20260507072036 11 338 1.6 4.8 0.00 0.36 0.03 89 1006.5
20260507071016 11 315 1.6 6.4 0.00 0.36 0.03 89 1006.4
20260507070016 11 0.0 4.8 0.00 0.36 0.03 88 1006.3
20260507065016 11 315 1.6 4.8 0.00 0.36 0.03 87 1005.9
20260507064016 11 0.0 3.2 0.00 0.36 0.03 87 1006.1
20260507063016 11 338 1.6 6.4 0.00 0.36 0.03 87 1006.3
20260507062016 11 338 3.2 8.0 0.00 0.36 0.03 87 1006.3
20260507061016 11 338 3.2 6.4 0.00 0.36 0.03 86 1006.1
20260507060036 11 338 3.2 9.7 0.00 0.36 0.03 86 1006.1
20260507055016 11 315 4.8 11.3 0.00 0.36 0.03 86 1006.2
20260507054016 11 315 3.2 11.3 0.00 0.36 0.03 87 1006.7
20260507053016 11 315 3.2 14.5 0.00 0.36 0.03 89 1006.6
20260507052016 12 315 4.8 11.3 0.00 0.36 0.03 91 1006.5
20260507051016 12 315 3.2 6.4 0.03 0.36 0.03 91 1006.7
20260507050016 12 315 1.6 6.4 0.03 0.36 0.03 91 1006.6
20260507045015 12 315 1.6 8.0 0.08 0.36 0.03 91 1006.5
20260507044016 12 315 1.6 6.4 0.08 0.36 0.03 91 1006.6
20260507043016 12 315 1.6 11.3 0.08 0.36 0.03 90 1006.4
20260507042016 12 315 3.2 9.7 0.08 0.36 0.03 90 1006.3
20260507041016 13 315 6.4 17.7 0.05 0.33 0.00 89 1006.3
20260507040015 13 315 4.8 16.1 0.05 0.33 0.33 89 1006.5
20260507035016 14 293 4.8 12.9 0.00 0.28 0.28 91 1006.3
20260507034016 14 293 3.2 11.3 0.00 0.28 0.28 93 1005.9
20260507033016 15 248 3.2 9.7 0.00 0.28 0.28 93 1005.9
20260507032016 15 293 3.2 8.0 0.00 0.28 0.28 94 1005.7
20260507031036 15 225 3.2 11.3 0.00 0.28 0.28 95 1005.4
20260507030116 15 248 3.2 8.0 0.00 0.28 0.28 95 1005.2
20260507025036 15 225 1.6 9.7 0.00 0.28 0.28 94 1005.3
20260507024016 15 225 3.2 9.7 0.00 0.28 0.28 94 1005.4
20260507023016 15 225 3.2 9.7 0.00 0.28 0.28 94 1005.3
20260507022016 15 180 3.2 11.3 0.00 0.28 0.28 94 1005.3
20260507021036 15 180 3.2 12.9 0.00 0.28 0.28 94 1005.1
20260507020016 15 203 3.2 9.7 0.00 0.28 0.28 94 1005.2
20260507015016 15 180 3.2 12.9 0.00 0.28 0.28 94 1005.2
20260507014036 15 203 3.2 11.3 0.00 0.28 0.28 94 1005.3
20260507013016 15 203 3.2 17.7 0.00 0.28 0.28 94 1005.2
20260507012016 15 180 3.2 11.3 0.00 0.28 0.28 94 1005.2
20260507011016 15 180 3.2 12.9 0.00 0.28 0.28 94 1005.3
20260507010016 15 225 4.8 16.1 0.00 0.28 0.28 94 1005.4
20260507005036 15 203 4.8 16.1 0.00 0.28 0.28 94 1005.3
20260507004056 15 180 4.8 11.3 0.00 0.28 0.28 94 1005.2
20260507003056 15 203 3.2 9.7 0.00 0.28 0.28 94 1005.2
20260507002016 15 203 4.8 14.5 0.00 0.28 0.28 94 1005.2
20260507001016 15 180 6.4 19.3 0.03 0.28 0.28 94 1005.2
20260507000016 15 180 6.4 16.1 0.08 0.28 0.28 94 1005.1
20260506235016 15 180 4.8 12.9 0.08 0.28 0.28 94 1004.9
20260506234036 15 203 4.8 9.7 0.10 0.28 0.28 94 1005.0
20260506233016 15 180 6.4 14.5 0.10 0.28 0.28 94 1004.9
20260506232015 15 180 4.8 17.7 0.10 0.28 0.28 93 1004.9
20260506231017 15 158 6.4 14.5 0.10 0.25 0.25 93 1004.9
20260506230016 15 180 4.8 11.3 0.05 0.20 0.20 93 1005.0
20260506225016 15 180 4.8 12.9 0.05 0.20 0.20 93 1005.1
20260506224015 15 180 4.8 9.7 0.03 0.18 0.18 93 1005.1
20260506223035 15 203 4.8 16.1 0.03 0.18 0.18 93 1005.1
20260506222015 15 180 8.0 17.7 0.03 0.18 0.18 92 1005.1
20260506221016 15 203 6.4 17.7 0.00 0.15 0.15 92 1005.3
20260506220017 15 180 6.4 19.3 0.00 0.15 0.15 92 1005.4
20260506215015 15 225 6.4 22.5 0.03 0.15 0.15 92 1005.4
20260506214015 15 203 6.4 16.1 0.03 0.15 0.15 92 1005.4
20260506213036 15 203 8.0 25.7 0.05 0.15 0.15 91 1005.5
20260506212015 15 180 6.4 20.9 0.05 0.15 0.15 91 1005.8
20260506211015 15 180 4.8 14.5 0.05 0.15 0.15 91 1005.9
20260506210015 15 248 4.8 16.1 0.08 0.15 0.15 91 1005.9
20260506205015 15 203 8.0 25.7 0.05 0.13 0.13 90 1006.0
20260506204015 15 225 8.0 24.1 0.05 0.13 0.13 90 1006.1
20260506203016 16 203 6.4 22.5 0.05 0.10 0.10 89 1006.1
20260506202015 16 225 8.0 22.5 0.05 0.10 0.10 89 1006.1
20260506201015 16 180 8.0 20.9 0.08 0.10 0.10 88 1005.9
20260506200015 16 180 6.4 19.3 0.05 0.08 0.08 88 1006.1
20260506195015 17 203 4.8 17.7 0.08 0.08 0.08 87 1006.2
20260506194017 17 180 6.4 14.5 0.08 0.08 0.08 86 1006.1
20260506193018 17 180 3.2 9.7 0.05 0.05 0.05 85 1006.2
20260506192037 17 203 4.8 19.3 0.05 0.05 0.05 83 1006.1
20260506191017 18 248 6.4 16.1 0.03 0.03 0.03 81 1006.1
20260506190018 18 180 6.4 24.1 0.03 0.03 0.03 77 1006.2
20260506185018 19 248 8.0 22.5 0.00 0.00 0.00 72 1006.3
20260506184017 20 225 9.7 29.0 0.00 0.00 0.00 69 1006.4
20260506183017 20 225 9.7 20.9 0.00 0.00 0.00 67 1006.4
20260506182758 21 225 8.0 32.2 0.00 0.00 0.00 63 1006.3
20260506163037 22 225 8.0 24.1 0.00 0.00 0.00 59 1007.2
20260506162037 22 180 6.4 25.7 0.00 0.00 0.00 59 1007.2
20260506161017 21 203 8.0 22.5 0.00 0.00 0.00 59 1007.5
20260506160212 21 225 6.4 17.7 0.00 0.00 0.00 59 1007.6
20260506155037 21 225 6.4 19.3 0.00 0.00 0.00 60 1007.8
20260506154017 21 180 8.0 19.3 0.00 0.00 0.00 60 1007.9
20260506153017 21 203 6.4 24.1 0.00 0.00 0.00 61 1008.1
20260506152017 21 225 4.8 17.7 0.00 0.00 0.00 62 1008.2
20260506151037 21 203 6.4 16.1 0.00 0.00 0.00 63 1008.4
20260506150017 21 203 8.0 19.3 0.00 0.00 0.00 63 1008.3
20260506145017 21 248 6.4 16.1 0.00 0.00 0.00 63 1008.7
20260506144016 21 225 8.0 22.5 0.00 0.00 0.00 64 1008.6
20260506143037 21 203 9.7 25.7 0.00 0.00 0.00 64 1008.4
20260506142037 21 180 9.7 25.7 0.00 0.00 0.00 64 1008.4
20260506141017 20 203 9.7 30.6 0.00 0.00 0.00 66 1008.2
20260506140017 20 225 8.0 24.1 0.00 0.00 0.00 67 1008.4
20260506135057 19 225 6.4 16.1 0.00 0.00 0.00 70 1008.4
20260506134017 19 203 9.7 22.5 0.00 0.00 0.00 70 1008.6
20260506133057 18 203 8.0 20.9 0.00 0.00 0.00 71 1008.9
20260506132037 18 248 6.4 22.5 0.00 0.00 0.00 72 1009.0
20260506131017 18 203 8.0 20.9 0.00 0.00 0.00 73 1009.1
20260506130037 18 180 6.4 19.3 0.00 0.00 0.00 74 1008.9
20260506125016 18 180 4.8 12.9 0.00 0.00 0.00 74 1009.0
20260506124016 18 180 8.0 17.7 0.00 0.00 0.00 75 1008.9
20260506123447 17 203 8.0 25.7 0.00 0.00 0.00 76 1009.0
20260506121037 17 180 8.0 19.3 0.00 0.00 0.00 76 1009.1
20260506120017 17 180 8.0 20.9 0.00 0.00 0.00 79 1008.9
20260506115016 16 203 8.0 19.3 0.00 0.00 0.00 79 1009.2
20260506114016 16 203 8.0 25.7 0.00 0.00 0.00 79 1009.2
20260506113016 16 225 8.0 19.3 0.00 0.00 0.00 79 1009.3
20260506112016 16 203 8.0 22.5 0.00 0.00 0.00 79 1009.5
20260506111016 16 203 8.0 25.7 0.00 0.00 0.00 79 1009.2
20260506110037 16 180 8.0 27.4 0.00 0.00 0.00 80 1009.2
20260506105016 16 203 8.0 20.9 0.00 0.00 0.00 80 1009.3
20260506104016 15 180 8.0 22.5 0.00 0.00 0.00 81 1009.4
20260506103016 15 180 6.4 17.7 0.00 0.00 0.00 81 1009.3
20260506102016 15 203 8.0 24.1 0.00 0.00 0.00 80 1009.3
20260506101116 15 203 6.4 17.7 0.00 0.00 0.00 80 1009.2
20260506100016 15 180 8.0 20.9 0.00 0.00 0.00 80 1009.1
20260506095016 15 180 6.4 24.1 0.00 0.00 0.00 80 1009.3
20260506094016 15 203 6.4 14.5 0.00 0.00 0.00 80 1009.0
20260506093016 15 203 4.8 12.9 0.00 0.00 0.00 79 1009.2
20260506092016 15 203 6.4 16.1 0.00 0.00 0.00 79 1009.2
20260506091036 15 180 4.8 19.3 0.00 0.00 0.00 79 1009.1
20260506090016 15 180 4.8 16.1 0.00 0.00 0.00 78 1009.1
20260506085016 16 203 4.8 12.9 0.00 0.00 0.00 78 1009.2
20260506084016 16 180 4.8 12.9 0.00 0.00 0.00 78 1009.3
20260506083016 16 203 4.8 11.3 0.00 0.00 0.00 77 1009.3
20260506082016 16 203 4.8 11.3 0.00 0.00 0.00 76 1009.3
20260506081016 16 180 4.8 11.3 0.00 0.00 0.00 76 1009.3